Regional Weather Roundup
Issued by NWS Sioux Falls, SD

Home | Current Version | Previous Version | Text Only | Print | Product List | Glossary Off
Versions: 1 2 3 4 5 6 7 8 9 10 11 12 13 14 15 16 17 18 19 20 21 22 23 24 25 26 27 28 29 30 31 32 33 34 35 36 37 38 39 40 41 42 43 44 45 46 47 48 49 50

000
ASUS43 KFSD 310410
RWRFSD

WEATHER ROUNDUP FOR SE SOUTH DAKOTA/SW MINNESOTA/NW IOWA
NATIONAL WEATHER SERVICE SIOUX FALLS SD
1100 PM CDT TUE AUG 30 2016

NOTE: "FAIR" INDICATES FEW OR NO CLOUDS BELOW 12,000 FEET WITH NO
SIGNIFICANT WEATHER AND OR OBSTRUCTIONS TO VISIBILITY.


SDZ038>040-050-052>070-310500-
SOUTHEAST SOUTH DAKOTA

CITY           SKY/WX    TMP DP  RH WIND       PRES   REMARKS
BROOKINGS      CLOUDY    66  61  84 SE3       30.21
CHAMBERLAIN    CLEAR     74  70  85 SE8       30.17R
HURON          MOCLDY    71  61  70 E10       30.17S
MADISON        FAIR      61  61 100 E7        30.22S
MITCHELL       CLEAR     70  67  90 E8        30.17F
SIOUX FALLS    PTCLDY    68  63  84 CALM      30.20S
WINNER         FAIR      73  63  70 S12       30.18S
YANKTON        PTCLDY    72  66  83 E5        30.18S
$$

MNZ071-072-080-081-089-090-097-098-310500-
SOUTHWEST MINNESOTA

CITY           SKY/WX    TMP DP  RH WIND       PRES   REMARKS
FAIRMONT       CLOUDY    64  59  83 N5        30.19F
JACKSON        CLOUDY    61  59  94 CALM      30.21F
LUVERNE        CLOUDY    63  59  88 CALM      30.21S
MARSHALL       CLOUDY    62  59  90 W6        30.21S
MONTEVIDEO     PTCLDY    64  55  72 CALM      30.21S
REDWOOD FALLS  CLOUDY    67  58  72 N3        30.19S
TRACY          CLEAR     64  61  88 CALM      30.21S
WINDOM         CLEAR     59  57  94 W3        30.20F
WORTHINGTON    CLOUDY    62  59  90 NW3       30.21F
$$

IAZ001>003-012>014-020>022-031-032-NEZ013-014-SDZ071-310500-
NORTHWEST IOWA

CITY           SKY/WX    TMP DP  RH WIND       PRES   REMARKS
CHEROKEE       PTCLDY    66  66 100 N3        30.19S
DENISON        CLOUDY    68  68 100 N5        30.16S
ESTHERVILLE    CLOUDY    60  60 100 N5        30.18F
LE MARS        PTCLDY    66  66 100 CALM      30.20S
ORANGE CITY    MOCLDY    70  66  88 E5        30.20S
SHELDON        MOCLDY    63  63 100 NE6       30.19S
SIOUX CITY     PTCLDY    73  68  84 E6        30.18S
SPENCER        CLOUDY    63  60  90 NE3       30.19F
STORM LAKE     PTCLDY    66  64  94 CALM      30.20S
$$

ABBREVIATIONS USED IN REMARKS
   TC - TEMPERATURE IN CELSIUS
  WCI - WIND CHILL INDEX
   HX - HEAT INDEX
  VSB - VISIBILITY





USA.gov is the U.S. government's official web portal to all federal, state and local government web resources and services.